Theta_e
351 350 349 347 347 345 343 342 343 343 342 341 340 340 338 336 333 331 330 332 333 337 334 336 344 343 345 344 346 345 347 347 347 348 350 350 351 346 341 342 343 344 344 343 343 343 343 343 344 346 347 348 348 348 347 346 346 348 348 347 347 347 345 343 342 341 341 341 340 340 340 341 340 338
353 351 350 348 347 348 343 342 341 344 343 342 341 340 340 339 335 334 331 331 334 336 336 335 339 342 342 343 344 344 345 345 347 348 347 347 348 344 340 338 339 341 341 340 339 340 340 340 341 342 344 345 345 345 345 346 346 348 347 346 347 346 345 342 341 341 341 340 339 339 339 338 337 337
353 351 350 350 348 348 346 344 341 343 343 342 342 341 341 339 339 337 335 330 337 335 338 339 337 339 342 340 341 342 344 344 345 347 346 346 344 343 343 338 336 336 338 338 338 337 337 336 335 337 338 340 341 342 343 344 345 347 347 346 346 345 343 342 341 340 340 339 339 337 336 337 336 336
353 352 351 351 350 349 347 346 344 343 343 343 341 341 340 340 339 340 336 333 333 339 336 339 341 338 341 342 341 342 342 343 345 347 346 346 345 345 345 340 337 335 335 336 336 335 333 332 333 335 336 337 339 341 342 343 344 344 345 345 344 342 342 340 341 341 340 339 338 336 336 335 335 333
354 353 352 352 352 351 348 347 346 344 344 343 342 342 340 339 339 338 336 334 333 338 339 339 339 341 340 340 341 341 341 342 344 346 346 347 344 345 345 345 340 336 334 334 334 334 333 332 332 334 335 336 338 340 341 341 340 340 342 343 339 339 340 339 340 340 338 338 337 336 335 333 333 332
354 354 353 352 352 352 350 349 346 346 344 343 342 341 339 339 339 339 337 336 335 333 338 338 341 340 341 341 343 341 340 340 343 342 344 345 345 345 345 345 344 338 336 335 334 334 333 332 332 333 334 335 337 338 338 339 337 338 340 339 337 336 337 337 339 339 337 337 336 334 333 333 332 332
354 353 353 353 353 352 350 349 348 347 345 344 343 343 342 341 341 340 339 338 335 334 335 340 338 340 342 340 342 343 342 344 344 342 342 341 343 344 345 344 344 340 337 335 334 334 333 333 332 332 332 333 334 335 335 335 335 336 335 334 334 335 336 335 335 336 337 336 334 334 333 332 332 332
354 353 353 353 353 353 351 351 350 349 348 346 345 344 344 343 343 342 340 339 338 338 335 338 339 341 341 342 343 342 343 341 342 342 343 343 342 343 344 344 344 341 337 335 334 334 334 332 331 331 331 331 331 331 331 332 332 331 332 332 332 331 331 330 330 333 332 332 331 333 332 331 331 329
355 354 353 354 354 353 351 351 350 351 349 347 346 345 346 344 344 343 342 340 339 337 336 337 340 342 342 343 344 343 341 341 340 342 341 341 342 343 343 343 343 340 337 336 335 334 333 334 333 332 331 330 329 330 330 330 329 329 329 327 327 329 329 328 327 328 329 328 326 328 331 331 329 327
356 355 354 354 354 353 351 351 352 352 350 349 347 346 346 346 345 344 343 342 340 338 337 338 337 340 338 339 341 343 342 340 340 340 340 341 341 341 340 340 341 343 342 342 341 337 335 334 333 333 332 331 329 329 329 330 328 326 324 322 324 328 326 324 324 324 324 324 322 323 326 327 328 327
356 356 355 355 354 353 353 352 352 352 351 350 349 349 348 348 346 344 343 342 340 339 338 338 339 337 339 339 336 341 342 342 340 337 337 337 340 340 340 339 341 341 341 341 339 339 340 339 337 332 329 330 330 329 328 327 326 324 323 321 321 322 322 323 322 321 322 322 321 321 321 321 325 327
356 356 356 355 355 355 355 354 354 353 352 352 350 350 349 348 346 344 344 343 340 339 339 338 338 339 338 339 339 340 339 338 337 338 336 334 336 338 340 340 339 341 342 341 340 338 337 337 336 332 331 331 330 329 329 329 329 326 323 322 324 324 321 321 321 320 319 319 319 319 320 319 320 322
355 356 356 356 356 356 353 346 346 347 346 353 350 351 350 348 346 345 344 343 342 340 339 339 340 339 338 338 338 337 337 335 335 340 340 336 337 339 338 339 340 340 340 340 339 340 341 340 341 341 341 340 336 334 332 334 332 328 323 322 325 325 322 320 320 320 319 317 317 317 319 318 316 317
355 355 355 356 353 344 342 340 338 336 336 338 348 353 352 349 347 345 344 343 342 341 339 339 339 338 338 338 339 338 338 339 341 339 339 335 336 339 337 337 338 340 338 337 336 338 342 339 340 342 340 340 343 341 338 336 334 330 325 325 325 325 323 320 319 318 318 316 316 316 315 316 316 316
353 355 355 356 355 349 343 344 336 335 334 334 334 335 339 343 350 347 344 344 344 342 340 341 340 339 338 339 341 340 340 340 340 338 339 338 337 335 334 332 339 342 338 338 337 337 342 342 339 340 340 340 341 341 341 333 331 328 326 326 326 325 325 323 321 319 317 316 316 315 314 314 315 314
354 354 355 355 356 356 356 355 352 342 333 330 331 331 331 332 335 337 347 347 345 344 341 340 340 340 339 340 341 341 340 340 340 340 340 338 337 335 335 334 334 342 342 338 337 336 342 342 339 338 338 340 340 340 336 332 328 327 326 326 325 324 324 324 324 321 319 318 318 318 317 315 315 315
354 355 354 355 356 357 349 351 356 356 353 335 327 327 329 329 330 330 330 333 348 350 346 343 342 343 343 342 342 343 343 344 341 341 339 339 339 337 336 336 337 340 343 340 337 333 337 339 338 336 337 339 340 339 333 331 329 327 326 326 325 324 324 324 323 322 321 319 318 316 315 315 315 314
355 355 355 355 355 357 357 357 356 356 356 356 354 348 342 341 339 329 326 326 327 338 346 347 345 348 348 344 346 348 347 344 341 341 339 341 340 339 337 339 340 343 342 338 337 333 335 337 334 333 336 338 339 339 335 330 329 327 325 325 324 323 323 323 322 321 320 319 318 316 313 312 312 312
355 355 356 356 355 356 357 357 355 356 356 355 355 355 354 352 349 348 345 340 338 337 340 346 346 348 350 351 351 351 351 348 346 345 344 344 344 343 342 341 341 341 344 341 337 330 335 338 333 333 335 337 337 338 333 330 328 327 325 324 324 323 322 323 322 321 320 319 317 315 312 310 310 310
355 356 356 356 356 356 356 347 334 340 355 356 354 354 354 355 355 354 344 338 338 342 343 344 345 347 348 341 351 351 351 350 349 347 346 345 342 339 336 335 338 339 343 341 336 332 333 337 332 333 336 337 336 337 338 330 327 327 325 325 324 321 320 321 322 321 319 318 317 314 311 309 308 309
355 355 356 356 355 356 356 343 332 330 333 353 354 353 354 354 354 354 357 338 329 329 328 328 330 331 330 330 328 327 327 336 342 345 341 339 340 336 334 335 336 337 341 340 338 335 331 333 333 332 334 336 334 335 336 337 328 326 325 324 323 320 318 319 320 320 319 318 316 313 311 308 308 309
354 355 346 354 356 355 356 337 329 328 333 348 353 353 352 352 352 354 355 355 349 327 325 326 327 327 328 328 327 327 327 326 328 337 335 339 341 336 335 333 336 338 340 341 340 334 331 334 335 332 333 333 335 336 338 337 334 327 325 322 321 319 318 317 318 319 318 317 315 312 310 308 309 314
352 354 350 344 343 348 347 332 327 325 331 349 352 352 352 351 352 353 355 354 354 354 349 344 340 339 332 336 337 338 329 327 334 336 337 339 338 337 337 337 337 334 337 341 342 334 333 334 335 335 331 328 333 337 338 338 336 333 331 330 326 319 318 316 316 315 316 316 313 311 309 308 310 315
352 353 354 348 328 325 326 325 323 321 320 345 352 353 352 351 351 355 355 354 354 354 353 353 353 350 348 346 345 345 344 342 341 339 340 340 339 338 338 338 338 336 338 345 341 335 336 337 335 338 334 329 328 334 337 335 333 333 331 331 328 322 321 318 317 315 315 313 311 310 309 308 310 315
351 352 353 355 337 324 321 319 318 317 315 321 347 353 352 353 352 346 350 351 351 350 350 350 350 351 351 351 350 349 348 347 347 345 342 343 342 340 338 338 338 338 341 345 335 339 335 336 334 336 335 333 332 331 329 331 331 333 332 330 328 327 323 322 321 320 316 312 309 308 308 308 309 313
351 352 353 354 342 326 320 317 315 313 314 315 332 345 331 328 325 340 345 347 347 347 347 347 346 347 347 348 349 350 351 351 351 349 347 346 344 343 342 340 338 337 339 346 328 340 337 335 335 334 334 332 331 332 328 324 329 331 330 329 328 326 324 323 324 322 320 316 311 309 310 309 310 311
352 354 355 355 343 328 318 315 312 311 311 313 325 319 321 324 324 328 340 341 342 342 342 342 342 343 346 346 347 348 349 350 352 351 351 350 348 346 344 344 343 342 343 346 342 341 339 337 338 335 333 334 330 330 329 328 325 327 326 326 327 327 325 325 323 323 321 317 313 310 309 308 309 310
355 356 357 338 312 306 303 305 308 309 310 323 314 312 317 322 324 337 340 339 340 339 338 338 339 341 343 345 345 346 347 348 349 350 350 350 351 350 349 348 347 345 344 344 345 343 341 339 338 338 338 335 332 329 328 330 329 323 323 325 326 326 325 325 324 324 322 318 313 311 311 310 312 311
352 314 306 308 312 313 313 309 311 310 309 311 313 311 314 321 336 340 340 339 338 338 337 338 340 342 344 345 346 348 348 348 348 348 348 349 349 350 350 350 349 347 345 344 344 344 342 340 338 339 338 337 334 333 331 329 327 322 323 322 320 323 324 325 324 323 321 317 313 312 310 310 310 312
315 314 316 316 319 321 324 333 339 339 335 314 312 312 315 328 333 336 338 337 337 337 338 338 339 340 342 344 346 347 346 344 342 342 341 341 341 343 343 342 343 345 347 347 346 345 343 342 340 339 337 336 335 333 332 330 326 322 323 322 323 323 323 323 323 323 321 317 314 312 312 312 312 312
330 332 334 335 324 324 322 324 321 325 328 331 327 325 325 329 332 334 335 337 337 337 337 337 338 340 341 343 341 340 340 339 339 341 339 338 337 339 339 338 337 339 343 346 346 346 345 344 343 340 336 335 335 334 335 332 328 322 321 323 322 316 318 322 323 322 320 317 314 314 313 313 315 318
336 337 325 324 335 336 337 335 335 334 334 334 333 334 331 330 332 332 332 331 334 334 335 335 335 335 335 334 333 332 331 331 332 334 332 332 331 332 333 331 330 333 336 341 344 346 345 345 344 342 339 338 335 335 334 332 327 322 320 322 323 323 321 320 320 320 319 316 313 312 313 313 313 315
335 334 334 332 331 331 329 329 329 329 329 329 330 330 330 331 331 331 330 328 328 329 330 329 329 328 329 329 330 330 330 330 331 333 332 332 331 331 332 329 329 329 329 331 336 341 344 344 343 343 342 342 341 339 335 329 328 326 322 321 322 321 318 319 319 317 317 315 313 313 312 312 313 315
332 330 329 329 328 327 327 327 327 327 326 326 326 327 323 328 329 328 329 328 329 330 328 329 328 328 328 327 328 328 328 329 330 330 327 329 330 328 328 328 328 331 331 332 332 333 335 339 341 342 341 340 340 339 337 333 330 328 325 323 320 317 316 318 318 317 316 315 314 312 311 311 312 315
330 329 327 325 326 325 326 325 325 325 325 325 325 326 326 327 327 326 327 327 327 328 328 328 328 328 327 326 327 326 327 327 328 328 329 330 329 328 327 326 326 328 329 330 332 335 336 336 337 335 333 324 324 323 323 325 328 323 321 319 319 317 315 316 316 315 315 314 314 312 311 310 310 314
326 326 325 325 324 324 324 323 324 324 325 325 326 326 325 326 326 326 326 326 327 327 327 326 325 325 325 325 324 325 325 324 325 326 325 326 326 326 327 326 327 328 329 329 330 333 335 336 335 330 326 325 323 322 325 323 326 323 318 316 317 316 315 316 316 315 314 312 313 312 309 308 309 312
322 322 322 322 323 323 323 323 324 325 325 325 326 326 325 325 326 326 327 327 327 325 324 323 323 323 323 322 322 322 322 322 321 321 322 323 324 325 324 324 325 327 328 329 332 333 335 333 332 329 326 324 321 319 322 318 315 318 324 318 315 315 315 314 312 311 312 312 311 311 310 309 309 312
322 322 322 323 323 324 324 325 325 325 325 326 326 326 326 326 326 326 326 325 324 322 322 322 322 321 321 321 320 320 320 321 321 321 321 322 322 322 322 322 323 324 326 328 331 333 334 333 330 328 325 322 321 319 318 312 316 315 313 318 314 314 314 312 310 310 310 311 311 311 311 309 310 312
324 323 323 323 324 325 325 326 326 325 326 326 326 325 325 325 324 324 323 323 322 322 321 321 321 320 320 321 320 319 319 319 319 319 319 320 320 320 320 320 321 323 324 324 324 323 324 324 324 324 323 321 320 318 315 310 309 312 310 310 314 313 313 312 310 310 310 309 309 310 310 312 313 314
325 326 325 325 325 326 326 327 327 326 326 325 325 325 324 323 323 323 322 321 321 321 321 321 320 318 321 321 320 320 320 319 319 319 319 319 319 319 319 319 320 320 319 317 317 318 319 318 318 316 315 314 314 314 313 312 312 314 314 311 308 313 313 312 310 309 309 309 309 308 308 309 307 308
325 325 326 326 326 326 326 326 326 326 325 325 325 321 324 323 322 322 321 320 320 320 321 322 322 321 321 321 321 319 318 317 318 318 319 319 318 318 317 316 318 318 316 314 315 314 314 316 318 315 318 316 316 316 313 309 307 309 310 311 307 308 309 312 313 311 309 310 310 308 307 307 307 307
324 325 326 327 326 326 327 326 326 325 325 325 324 323 322 321 321 315 319 320 321 321 321 322 321 321 321 321 321 319 319 317 317 318 318 318 318 318 318 317 316 316 315 313 313 314 317 320 321 320 319 319 318 313 308 308 307 307 309 311 312 308 308 310 312 313 313 311 309 306 305 305 306 305
323 324 324 325 328 328 328 326 326 325 325 324 323 322 321 320 321 321 322 321 321 321 321 321 322 321 322 321 321 321 320 319 318 318 319 318 318 317 316 316 316 316 315 316 317 319 320 321 321 321 320 318 316 314 309 309 309 309 308 310 310 312 312 310 309 310 311 312 311 312 313 309 305 302
321 322 322 323 324 325 326 326 325 325 324 323 322 321 320 319 320 321 321 321 320 320 321 321 322 322 322 322 322 323 322 320 320 319 318 318 318 318 317 317 317 317 318 319 319 319 321 320 320 319 316 314 314 312 311 311 310 310 310 310 311 311 310 312 312 310 310 310 308 309 309 310 310 311
315 314 315 315 316 317 317 318 320 322 322 321 321 320 320 320 320 322 322 321 321 321 321 321 321 322 323 322 321 321 321 316 319 321 321 320 320 319 319 319 319 319 319 320 320 319 320 319 320 319 316 313 313 312 313 313 312 311 310 310 309 311 311 312 311 310 310 311 308 308 309 309 310 310
Wind_Speed
5 5 6 7 6 4 4 3 4 5 4 4 4 5 6 5 5 4 4 5 4 3 5 4 3 6 7 7 5 5 6 8 9 6 7 7 7 10 13 14 14 14 15 14 14 14 14 15 15 15 15 14 14 14 13 12 11 10 9 9 8 7 6 5 4 3 2 1 2 2 3 2 1 2
4 5 4 4 5 4 4 5 5 5 5 4 4 5 4 5 6 4 5 8 4 5 3 5 5 2 5 5 5 6 7 8 10 7 7 8 8 13 14 14 15 15 15 15 15 15 15 15 15 15 15 15 15 14 14 13 12 10 10 9 8 8 7 5 4 3 3 3 3 3 2 1 1 1
5 5 6 5 5 4 5 4 4 4 4 5 4 4 4 5 6 5 4 6 4 4 4 4 5 5 4 4 5 5 6 7 10 8 7 8 12 15 12 15 16 16 16 16 16 16 16 16 16 15 15 15 14 14 14 14 13 11 11 9 9 9 8 5 4 4 4 4 4 4 3 3 2 1
5 6 7 6 6 4 4 5 5 5 5 5 5 5 5 5 5 5 5 6 12 3 5 5 4 5 5 3 5 6 5 5 11 8 8 9 10 9 9 14 17 17 17 17 17 17 17 17 16 16 16 15 15 15 15 14 14 13 11 10 10 9 7 6 5 6 6 6 7 6 5 4 3 1
6 6 7 7 6 5 6 5 5 5 5 5 5 5 5 5 5 6 6 7 10 8 4 6 5 1 3 4 6 7 6 6 6 8 8 8 8 8 8 9 15 17 18 18 18 18 18 18 17 17 17 16 16 16 15 14 14 13 12 11 11 10 9 7 7 7 7 8 8 7 6 4 3 1
5 5 7 7 6 6 7 6 6 6 5 5 5 5 6 6 6 6 6 7 6 13 4 4 2 4 4 5 4 8 8 8 6 7 7 7 8 8 8 8 9 16 18 18 19 19 18 18 18 18 18 18 17 17 16 15 14 13 12 12 12 12 11 9 9 9 9 10 10 8 6 4 3 2
6 7 7 7 5 4 6 6 6 5 6 6 6 7 6 7 7 6 8 6 8 10 12 5 6 5 4 7 7 7 7 7 5 7 8 8 7 7 8 8 8 14 17 18 19 19 19 19 19 19 19 18 17 17 16 15 14 13 13 12 13 13 12 11 11 10 10 11 10 9 7 6 4 4
7 8 7 8 6 5 7 7 6 6 6 6 6 6 6 6 7 6 6 8 8 8 10 8 6 4 5 6 6 4 4 5 5 7 6 5 7 8 8 9 9 12 17 18 19 19 19 19 19 19 19 18 17 17 16 14 14 13 13 13 14 14 13 13 12 12 11 11 10 9 8 7 6 5
7 7 9 8 6 6 7 7 7 6 8 7 6 7 6 6 6 4 6 7 6 8 11 11 7 4 5 5 4 4 5 5 6 6 7 7 7 7 8 7 9 13 15 16 17 18 19 19 19 19 19 18 18 17 16 15 14 14 14 15 15 15 14 13 13 12 12 12 11 10 8 8 7 6
7 8 8 8 7 7 8 8 7 6 8 6 7 8 7 6 5 6 6 6 6 7 10 9 11 8 8 7 6 5 5 6 7 7 7 7 7 6 7 8 7 6 7 7 9 13 16 19 20 19 18 18 17 16 16 15 15 15 15 16 16 16 15 14 14 13 13 13 12 11 10 8 8 7
8 8 8 8 7 8 8 9 8 7 7 6 8 8 7 6 6 6 6 6 7 7 7 7 8 9 8 7 10 6 4 6 7 8 9 9 7 6 8 8 6 7 9 11 14 13 12 14 14 16 19 18 17 17 16 16 16 16 17 17 18 17 16 16 15 14 13 13 13 12 11 10 9 9
8 9 8 8 8 8 8 8 8 7 8 6 8 7 6 6 6 7 6 6 6 7 7 7 9 8 9 5 6 4 2 5 7 7 8 12 11 9 7 8 8 7 5 8 8 11 13 13 15 15 16 17 17 17 16 18 17 18 18 18 19 18 18 18 17 15 14 14 13 13 12 11 11 10
8 8 8 8 9 10 12 14 12 11 10 7 8 9 6 7 7 7 6 6 6 7 7 8 9 8 8 8 7 7 7 9 13 7 5 9 10 9 9 8 7 6 7 7 9 8 9 8 8 8 7 9 15 16 18 15 19 19 19 19 19 19 19 19 18 17 16 15 14 14 13 13 12 11
8 8 8 8 13 14 15 15 15 15 16 17 14 11 7 8 7 8 7 7 7 7 8 9 8 8 9 8 9 10 10 10 8 8 7 9 11 6 8 10 8 7 7 9 12 11 5 7 7 6 9 8 10 9 10 11 14 17 20 20 20 21 20 20 19 18 17 16 15 15 14 14 13 12
9 7 8 8 10 12 12 13 16 17 18 19 20 20 17 12 11 8 9 9 7 7 9 8 8 8 12 12 9 10 9 7 9 10 10 9 7 9 9 13 6 7 9 8 10 12 5 5 8 9 9 9 9 11 11 19 21 20 21 21 22 22 21 21 20 19 18 17 17 16 15 15 14 13
8 8 8 7 7 7 9 9 10 14 18 19 20 20 19 18 18 17 13 11 11 13 12 12 11 10 12 13 10 10 8 11 10 10 8 9 9 11 10 11 11 6 8 9 7 8 3 6 9 10 12 11 9 12 16 20 20 21 21 22 22 23 22 22 21 20 19 19 18 17 17 16 15 14
10 10 9 8 7 7 13 11 9 9 11 16 21 20 18 17 19 19 19 18 16 12 12 13 14 12 12 14 13 11 13 11 11 9 10 10 9 10 11 12 12 10 7 7 6 9 9 7 8 11 12 10 10 12 17 20 20 21 22 22 22 22 22 22 21 21 21 20 19 18 18 17 16 14
10 11 10 9 8 8 8 8 9 9 10 12 11 11 9 10 15 18 19 20 21 21 16 15 16 16 12 15 15 11 9 10 11 11 13 11 13 10 14 16 16 9 8 10 6 10 8 7 9 13 11 9 11 12 16 19 20 20 21 21 21 22 22 22 21 21 21 21 20 19 18 18 16 15
12 11 10 10 10 10 9 9 10 9 10 11 10 11 9 8 9 10 11 12 12 10 13 16 17 18 16 15 16 13 10 12 12 12 14 15 14 10 11 13 12 9 6 7 7 13 8 4 9 14 11 9 9 11 13 16 17 19 21 22 22 22 22 22 22 22 22 21 20 20 19 18 17 15
11 11 11 11 11 11 11 12 16 15 12 10 12 12 11 9 9 10 12 16 17 16 14 14 14 15 16 18 16 15 13 11 10 10 11 11 8 9 13 15 10 11 4 10 11 9 7 6 10 15 10 7 11 13 9 12 18 21 21 22 24 24 23 23 22 22 22 22 21 20 19 19 17 16
12 11 11 11 11 11 11 13 16 17 15 11 11 13 12 8 8 9 10 16 20 21 21 23 23 22 22 22 23 22 22 17 14 9 10 13 9 11 14 15 12 13 7 8 11 8 11 14 12 13 8 9 11 12 10 12 21 24 23 24 24 23 23 23 23 22 23 22 21 20 20 19 17 17
10 12 16 14 12 12 12 15 16 17 14 10 12 13 13 10 9 10 12 8 7 17 22 23 23 23 22 23 24 24 22 21 14 10 14 16 10 12 13 15 15 12 9 7 11 9 14 11 9 11 8 4 9 10 9 11 11 18 20 24 24 23 23 24 24 23 23 23 22 20 20 19 17 11
10 10 11 15 15 14 14 17 16 17 13 11 12 13 12 10 10 12 12 10 12 9 7 9 10 12 15 15 13 16 23 22 17 13 15 14 13 14 15 15 13 14 13 8 14 10 12 11 13 11 6 10 11 9 8 9 9 9 10 12 15 23 23 24 24 24 24 23 24 23 22 20 16 9
8 9 9 11 16 19 19 18 17 16 16 13 12 12 10 11 13 11 9 11 9 9 8 10 9 9 8 9 11 11 12 13 13 15 14 13 13 14 15 15 14 15 13 4 15 13 10 10 14 13 13 12 11 8 6 9 12 12 12 12 10 16 21 22 20 26 27 25 25 24 22 21 17 9
7 7 8 8 13 17 18 18 18 16 14 14 12 12 14 15 11 6 8 10 9 11 12 12 12 11 10 10 11 10 10 10 9 11 14 13 12 12 14 15 15 16 17 9 15 12 10 11 14 11 11 11 14 10 3 7 10 14 14 13 13 11 9 9 9 12 21 27 27 25 23 22 20 14
7 8 9 9 12 14 14 15 15 15 13 14 10 14 21 21 8 10 11 9 10 10 10 12 13 13 13 12 14 13 13 12 10 9 9 12 13 12 15 16 16 15 17 10 19 14 12 10 12 12 12 10 13 12 10 7 8 11 10 11 12 13 16 14 13 14 13 13 15 17 19 22 20 19
9 9 8 8 7 6 5 6 7 8 11 9 10 15 16 23 21 12 9 10 11 12 11 9 11 10 9 10 11 11 11 12 10 9 10 12 12 13 13 16 16 17 18 14 10 12 12 13 11 14 14 13 13 11 12 11 7 5 5 9 12 13 14 14 15 14 13 14 14 21 19 20 21 19
8 7 4 2 10 10 10 8 7 8 9 8 12 13 15 20 21 10 6 7 8 9 9 9 9 10 8 9 12 10 9 10 11 10 10 12 12 13 12 13 15 16 17 16 14 13 13 14 13 14 16 14 14 14 15 11 7 8 12 9 10 10 10 12 12 13 14 14 13 13 11 10 8 10
2 7 10 8 5 3 2 6 8 7 9 10 11 13 15 15 9 9 8 7 7 9 9 9 9 10 9 8 10 9 11 12 12 10 10 11 12 12 14 14 14 14 11 11 12 13 14 14 15 14 15 16 17 16 12 12 10 9 11 11 10 11 11 12 13 15 14 13 15 14 14 13 10 9
5 2 2 1 2 2 2 2 2 3 4 8 10 11 11 7 8 7 8 8 8 9 9 10 11 11 10 10 9 11 12 12 12 12 12 12 13 12 13 13 13 13 13 12 12 12 12 11 12 11 11 12 13 15 14 13 11 9 12 16 14 7 8 12 14 14 15 16 15 14 11 11 11 10
5 5 4 2 4 4 5 5 4 3 1 3 4 3 4 5 5 6 6 7 7 8 9 10 10 10 11 12 12 12 12 13 13 11 12 12 13 12 12 13 16 14 10 10 11 13 14 14 15 15 15 13 11 14 16 16 17 12 10 10 11 14 14 15 14 14 14 13 12 11 10 9 8 8
4 4 5 6 5 6 5 4 4 4 4 3 3 2 2 3 4 5 6 7 6 7 8 9 10 11 10 11 11 11 12 12 13 11 12 11 14 12 13 14 14 13 13 9 9 10 13 15 16 15 16 16 17 14 9 8 8 9 13 16 17 15 13 19 16 13 13 13 11 11 11 10 12 11
5 6 6 6 5 5 5 4 3 3 3 4 3 3 2 1 2 3 3 4 6 6 7 8 9 11 11 11 10 10 12 12 12 12 12 12 13 13 11 14 14 14 14 13 10 10 9 11 12 15 14 16 17 17 12 12 12 12 13 15 15 12 11 14 15 15 15 14 13 12 12 10 9 10
6 5 5 4 4 4 4 3 3 3 3 3 2 2 1 0 1 2 3 4 6 6 7 7 8 8 9 10 10 10 12 13 12 12 12 14 12 13 13 14 14 12 13 13 12 12 12 10 10 12 14 16 15 16 16 16 16 15 16 13 12 10 10 14 15 19 19 17 15 12 10 9 7 7
4 5 6 4 3 3 4 5 4 4 3 3 2 2 2 2 3 3 4 4 5 6 7 7 7 7 8 9 10 11 12 13 13 13 11 11 12 12 13 14 15 14 13 14 11 9 9 10 9 11 8 4 6 3 3 2 8 2 3 3 6 7 8 8 10 11 12 11 12 13 11 9 8 5
6 5 6 5 5 4 5 4 4 3 3 3 4 4 4 4 3 3 4 5 5 5 5 6 7 7 7 8 9 10 10 10 10 11 11 11 11 12 11 12 13 14 12 12 12 10 10 10 10 11 11 8 7 8 6 1 3 9 10 9 9 9 10 11 10 11 13 13 11 12 12 13 10 8
7 6 6 7 6 5 5 4 3 3 3 3 4 4 4 4 4 4 5 5 4 4 4 5 6 7 7 7 8 8 9 9 10 11 11 11 10 11 12 12 12 12 12 12 11 11 9 11 10 10 12 11 8 11 6 3 6 4 10 12 10 11 13 11 12 11 9 11 10 10 10 10 10 9
9 7 7 6 5 4 4 4 4 4 4 4 4 4 4 4 5 5 5 4 4 4 5 5 6 6 7 7 8 8 9 10 9 10 10 10 10 11 11 12 12 12 12 12 11 10 9 11 9 8 9 10 9 10 6 3 3 6 7 4 11 11 11 11 11 12 10 8 10 7 7 9 9 9
7 6 6 5 5 4 5 4 4 4 4 3 3 4 4 4 4 5 5 5 5 6 6 6 7 7 8 8 9 9 9 9 9 10 11 11 11 12 13 12 13 12 11 10 8 8 7 7 7 5 5 6 6 3 3 5 6 7 12 16 9 9 8 10 11 10 9 8 6 7 7 6 9 10
7 7 6 6 5 4 4 4 4 3 2 2 3 3 4 4 4 5 5 5 5 6 5 6 7 7 7 8 9 10 9 9 9 8 9 9 11 11 11 11 10 9 7 7 8 9 7 6 4 3 5 7 8 9 11 11 8 9 11 13 15 12 11 11 12 12 9 6 6 9 8 6 5 1
5 7 6 5 5 5 4 4 3 1 2 2 2 3 3 3 3 3 4 5 5 5 5 5 5 6 7 8 8 8 9 9 10 10 11 11 10 10 13 11 8 8 8 10 10 10 11 8 5 10 12 10 10 10 11 10 10 8 10 10 14 17 17 14 12 10 8 9 7 8 9 7 7 6
4 5 5 5 5 4 4 3 3 2 1 2 2 2 2 2 3 4 4 4 5 4 4 5 6 6 7 7 7 8 8 9 10 10 11 11 11 10 11 9 8 8 9 9 10 9 8 8 8 8 6 4 2 9 9 11 11 10 10 9 9 12 15 16 15 13 11 8 8 7 5 6 7 6
6 6 5 4 3 4 4 4 4 4 3 3 4 3 3 3 3 4 5 4 5 4 5 5 5 6 6 7 6 6 7 8 9 9 9 9 9 8 8 9 8 8 8 7 6 7 7 7 7 6 7 8 9 9 13 10 9 10 10 9 9 7 8 9 11 12 11 7 5 5 4 7 6 4
6 6 6 6 5 5 4 5 5 5 5 4 4 4 5 4 4 4 4 4 5 5 5 5 5 5 5 5 4 4 5 7 7 8 8 8 7 7 7 7 7 7 6 5 6 7 7 8 7 7 10 10 9 11 13 11 10 8 8 8 8 8 9 6 7 8 9 11 14 13 11 5 3 5
6 6 7 7 6 6 6 7 6 6 6 5 5 5 6 5 5 4 4 4 4 5 5 6 6 4 4 4 5 6 6 6 5 5 5 7 6 6 5 6 6 6 7 7 6 7 7 7 7 8 10 10 9 10 9 8 9 8 7 8 9 7 6 6 8 8 6 4 11 12 7 7 3 9
Wind_Direction
211 213 201 207 215 205 182 199 211 208 203 203 188 184 197 184 227 278 292 278 267 277 199 234 272 209 216 223 210 208 219 225 218 217 223 225 228 229 228 230 233 234 236 237 237 238 240 242 244 245 245 244 245 245 245 244 242 236 234 237 235 235 233 224 209 216 213 229 263 284 288 294 13 46
204 215 214 208 223 194 183 201 207 206 208 189 189 192 198 178 210 216 264 282 201 258 252 213 256 212 226 222 219 210 223 218 217 217 219 224 227 230 227 228 231 232 234 238 239 239 240 241 243 245 246 246 247 247 247 247 245 236 236 236 231 229 232 225 205 205 201 200 234 243 242 212 149 143
198 210 217 204 222 194 201 195 199 208 196 203 182 199 174 195 204 205 203 284 273 178 259 248 241 255 244 229 232 227 230 223 217 221 221 225 232 230 231 230 230 230 232 235 238 239 240 241 242 244 245 246 245 245 244 244 243 237 233 228 226 224 229 226 210 219 213 214 222 218 204 195 194 196
202 209 220 214 213 199 198 211 201 196 202 187 190 187 192 205 199 185 200 228 268 203 230 250 247 233 248 225 231 240 240 225 222 226 226 229 232 233 235 233 231 231 231 232 235 238 239 240 240 242 244 245 245 244 243 241 241 237 230 224 219 218 221 215 215 219 217 218 210 200 200 202 202 213
209 211 220 223 216 185 204 214 214 210 199 189 194 185 185 206 188 184 196 230 264 273 199 245 246 216 205 240 212 234 237 232 224 227 231 228 227 228 230 233 232 231 231 232 233 236 238 239 239 240 242 243 244 245 243 240 237 234 227 220 213 212 212 210 214 217 210 205 201 198 197 200 195 194
212 209 219 227 216 191 212 209 216 216 207 198 195 194 194 204 201 190 197 225 235 275 250 248 210 249 187 245 186 215 226 235 217 226 229 228 226 229 230 230 234 230 231 231 233 234 237 238 239 240 240 241 242 243 243 239 235 232 226 218 210 208 207 206 210 211 205 207 203 197 196 190 190 189
205 215 222 231 212 191 215 219 224 211 216 206 212 214 198 212 209 194 203 207 240 253 272 239 249 224 209 215 234 216 230 237 211 228 231 226 223 226 230 232 237 232 229 231 233 234 235 236 238 239 238 239 240 241 241 237 232 228 222 215 211 209 206 205 207 207 204 205 204 198 189 186 191 202
204 215 223 231 213 198 215 225 224 219 216 214 218 227 219 219 227 203 196 221 234 258 273 267 229 239 224 245 244 242 240 238 229 228 246 239 238 231 225 228 235 234 230 230 231 233 234 235 236 237 237 236 236 237 235 232 227 222 217 213 211 211 208 206 207 206 204 205 203 195 191 187 197 199
209 212 221 227 209 202 218 230 229 220 218 220 219 227 224 221 221 203 204 216 218 245 258 272 268 232 239 248 256 209 231 237 239 240 238 234 235 237 235 235 239 245 238 234 234 235 236 237 236 236 236 235 233 232 229 225 221 217 212 210 211 212 210 208 209 206 205 204 201 196 192 193 197 198
213 216 221 223 211 206 214 228 229 225 228 222 225 226 228 224 214 223 224 217 223 227 249 259 275 264 260 264 244 216 204 239 256 250 243 247 243 241 247 235 233 228 228 223 231 235 238 238 237 236 237 235 232 229 225 220 216 213 209 208 210 211 209 209 211 209 204 203 200 195 191 193 199 200
221 219 220 219 212 216 218 226 226 224 227 225 232 231 232 227 216 225 226 217 226 229 243 253 249 266 258 237 266 250 191 232 235 257 268 262 235 220 233 250 230 225 236 236 233 233 230 234 234 232 234 233 230 226 221 216 213 210 207 207 208 209 207 206 209 208 204 202 199 195 191 195 203 205
226 223 222 220 215 218 220 223 227 218 229 223 236 231 218 221 221 231 230 226 227 235 236 239 256 247 259 251 238 264 229 252 254 223 237 260 263 248 227 229 244 235 219 238 236 230 233 239 238 237 236 232 232 229 221 217 213 210 207 206 207 208 207 205 207 205 201 200 197 196 192 195 205 209
228 229 226 223 222 223 227 225 226 225 222 222 235 237 201 217 218 228 230 233 232 240 242 254 252 258 258 251 253 245 235 232 249 258 177 248 256 260 264 249 225 228 228 238 242 233 214 218 222 219 218 219 224 227 221 220 215 211 207 206 207 208 207 205 205 201 199 198 196 196 194 198 203 206
228 228 227 227 227 226 226 226 227 229 228 227 231 241 202 215 216 222 230 230 231 239 246 243 251 255 255 252 244 250 247 252 260 258 230 246 258 264 262 265 241 216 211 236 245 246 205 212 226 219 230 218 210 217 205 212 210 208 206 206 207 207 207 205 203 198 196 196 195 195 195 198 202 201
237 231 228 233 229 226 229 229 228 229 231 233 234 237 234 222 216 221 231 237 233 238 242 248 245 245 260 258 253 252 255 250 247 252 250 251 261 257 263 271 264 186 207 220 240 253 209 188 226 223 228 218 209 215 214 215 211 206 201 204 205 206 206 205 201 196 193 194 194 194 195 198 200 198
237 237 234 229 228 227 222 220 225 231 236 238 238 237 235 232 231 228 228 238 245 244 250 253 247 251 254 261 251 255 254 255 253 250 248 246 246 253 252 255 260 231 183 224 231 254 191 193 221 236 233 228 220 218 222 217 208 205 203 202 204 205 205 203 200 194 192 192 192 194 194 197 198 195
236 238 239 238 232 233 226 226 228 232 239 239 240 240 237 235 235 237 236 234 239 247 249 251 257 243 254 259 253 238 247 250 259 261 256 249 243 245 252 256 254 246 176 214 222 243 229 183 223 237 237 225 227 227 225 219 208 206 204 202 203 204 204 203 198 193 191 190 191 192 193 194 195 192
234 234 235 237 241 234 227 226 226 231 240 251 249 238 216 221 235 236 237 237 241 244 247 251 256 254 235 251 256 249 238 246 249 253 259 252 253 238 245 251 252 247 145 210 234 259 245 178 226 243 242 219 229 230 224 215 210 207 205 203 203 203 203 202 197 192 190 189 189 190 192 193 191 187
235 235 231 233 240 241 234 229 224 227 236 245 252 254 240 213 218 224 227 222 221 225 236 243 247 255 255 255 261 259 248 242 244 243 252 256 257 263 268 267 259 260 189 205 216 250 266 130 233 246 238 220 236 245 232 216 210 209 206 204 202 200 200 199 196 192 190 188 187 188 191 192 187 185
235 234 232 233 237 240 238 232 221 225 232 242 252 255 254 246 236 236 236 228 222 226 228 233 244 249 251 254 259 259 257 252 252 255 259 266 272 270 264 265 266 258 177 188 213 232 254 211 226 253 239 203 224 231 220 192 206 212 207 206 202 198 197 196 193 190 189 187 186 188 190 189 185 184
236 234 232 230 237 238 240 233 220 222 221 239 248 255 256 249 252 254 253 229 225 229 233 238 242 246 252 256 258 260 259 256 261 273 275 263 248 254 262 267 267 260 232 208 198 208 229 229 227 257 253 216 232 235 210 196 206 204 206 206 202 197 195 192 190 188 187 184 186 188 189 187 184 183
236 235 231 231 234 237 240 234 223 221 212 228 241 254 257 254 253 259 254 259 232 226 235 240 243 246 250 254 258 260 262 260 254 245 253 259 252 254 255 261 263 267 247 229 161 199 232 240 230 251 258 252 240 240 221 210 209 204 211 207 202 198 192 190 187 185 184 181 184 190 187 186 183 174
235 238 234 230 232 236 238 235 227 221 206 220 235 247 256 253 257 254 266 270 270 264 250 244 246 255 251 251 251 255 256 254 250 239 243 257 254 252 257 260 270 276 257 214 164 199 238 227 237 242 259 253 246 229 216 206 207 196 201 209 206 199 191 189 185 183 178 182 182 186 188 186 175 174
232 230 236 230 227 231 236 238 232 225 209 218 237 250 255 256 255 262 269 261 266 276 276 279 268 258 244 247 249 250 249 246 231 238 234 234 236 244 251 250 249 255 264 192 168 204 231 210 239 226 228 246 263 239 188 192 195 198 202 192 193 199 194 188 186 181 177 183 181 185 187 184 174 176
232 233 229 231 229 226 229 232 236 234 221 222 239 249 257 250 255 305 274 279 289 286 283 280 277 275 274 268 260 249 247 243 234 233 237 235 231 232 245 250 247 253 255 234 175 198 221 211 232 231 236 228 247 259 228 208 200 206 198 184 189 185 179 189 181 179 183 180 182 184 186 180 179 176
229 231 235 239 233 229 231 234 236 235 229 224 225 247 256 265 264 273 270 282 283 276 276 275 277 278 275 272 271 268 267 261 251 247 236 240 235 229 235 244 249 256 255 229 180 205 222 231 224 227 232 235 248 236 244 218 215 220 191 184 179 178 185 184 186 179 180 182 183 185 185 182 181 181
230 234 233 242 245 229 229 235 238 228 219 208 224 243 267 279 271 251 262 267 269 271 271 270 271 272 272 277 278 277 278 276 270 267 263 257 250 243 241 238 241 248 254 258 209 213 217 236 218 224 236 229 244 241 235 234 224 171 184 191 192 189 187 180 179 175 178 179 181 185 181 179 183 187
229 235 237 115 91 102 112 127 147 177 177 200 212 217 224 241 262 273 257 257 257 266 270 264 266 271 271 275 279 281 282 281 282 279 274 274 267 267 266 257 251 249 255 254 246 226 222 234 233 227 231 234 236 239 245 230 217 170 191 190 204 191 181 182 180 176 179 175 175 175 173 175 185 175
241 87 97 99 97 113 133 146 152 158 184 200 198 208 217 230 252 265 274 270 277 278 276 277 280 281 279 280 282 292 291 290 292 288 286 282 278 277 275 273 270 268 264 261 252 244 238 232 237 231 228 227 232 235 233 238 211 197 185 165 198 197 186 188 182 179 177 174 175 179 180 175 173 178
70 75 21 138 169 164 133 164 179 195 175 190 201 211 217 231 238 255 267 283 284 285 289 291 292 296 302 302 304 307 304 303 299 303 301 300 295 292 287 285 274 265 262 260 255 251 251 252 253 257 260 250 237 238 231 234 231 194 186 192 196 141 176 184 190 185 174 176 176 172 175 168 173 170
261 263 249 166 143 115 128 117 108 99 123 142 173 205 217 226 237 250 256 263 275 279 288 292 295 299 305 310 311 310 313 308 305 309 308 303 300 305 298 290 289 286 270 255 252 242 240 239 239 236 246 252 252 239 232 222 225 199 195 192 160 180 188 192 190 184 177 170 162 156 151 149 159 187
186 168 122 116 107 110 103 89 77 70 56 55 74 110 181 221 242 263 281 294 294 297 299 299 304 307 312 312 311 312 306 300 298 304 302 299 298 300 301 296 292 296 294 282 268 252 240 237 235 228 228 234 244 250 250 238 222 184 196 198 200 201 173 179 179 175 159 145 138 143 160 171 171 178
100 101 101 102 96 83 105 107 112 114 114 100 103 91 72 27 317 317 318 306 304 303 306 297 299 295 300 297 300 298 296 294 296 299 296 291 292 293 285 282 287 292 296 295 285 275 262 261 252 249 244 239 236 239 235 232 220 210 207 207 202 192 173 179 165 153 151 152 165 162 170 180 176 171
119 106 103 100 114 128 126 130 112 96 85 86 91 78 176 253 316 312 302 296 292 287 277 283 287 293 294 294 295 295 292 294 294 296 294 295 294 291 292 291 289 288 287 289 288 282 279 269 260 253 248 247 242 231 227 227 228 213 210 202 190 187 184 175 171 165 163 162 155 159 163 175 178 177
99 120 109 113 108 107 95 84 81 67 61 48 49 45 32 22 350 342 321 308 299 288 289 286 289 288 294 297 299 296 298 297 299 301 301 296 296 295 296 295 295 296 291 288 286 287 281 279 271 268 266 337 331 338 63 247 261 286 140 143 171 160 160 169 160 155 144 141 150 159 153 152 165 183
89 102 113 103 91 85 80 71 66 66 61 40 24 6 0 356 348 321 307 304 299 299 302 305 307 307 301 300 298 297 296 299 302 307 309 310 304 301 296 293 295 293 291 289 289 280 272 271 272 272 265 258 258 275 263 61 212 164 160 171 163 163 169 173 166 156 147 146 152 151 156 167 169 168
104 96 94 98 94 84 80 71 64 61 46 28 15 357 343 327 321 308 305 297 301 313 310 309 306 306 305 304 306 304 312 316 317 317 313 314 312 308 307 306 303 301 297 292 288 289 282 278 271 257 253 253 243 251 255 67 17 355 189 168 164 163 162 158 151 150 146 136 144 155 156 152 158 167
104 104 98 92 88 82 79 69 59 46 32 12 357 335 320 308 309 313 318 325 327 325 328 329 324 317 314 313 322 325 325 323 315 320 319 320 318 321 318 314 313 312 310 304 303 301 302 294 283 251 244 249 248 245 235 48 56 14 10 147 156 154 140 136 141 143 133 136 142 145 130 140 160 163
99 101 95 91 81 71 60 51 43 34 16 355 330 317 307 309 318 321 332 334 341 345 345 339 334 329 328 336 335 335 332 332 334 331 330 329 331 328 326 324 320 319 315 325 333 334 335 325 316 305 290 282 285 319 69 94 59 47 57 73 104 108 124 132 128 118 123 124 103 76 66 76 72 93
96 88 85 79 72 63 53 41 32 25 348 326 303 310 313 315 320 327 330 339 345 350 341 331 327 333 347 351 349 342 338 339 337 334 337 336 339 336 335 333 330 336 340 349 348 351 357 5 24 42 76 83 95 92 95 93 82 72 71 57 80 117 128 137 130 129 112 109 128 112 117 109 108 72
83 76 70 74 70 58 48 36 31 3 334 311 317 312 321 320 316 334 337 338 341 342 338 334 341 350 353 356 358 354 345 344 347 349 351 351 350 352 350 345 347 345 2 14 14 16 17 17 71 114 112 117 118 114 95 84 85 85 77 76 69 77 91 102 111 111 115 133 133 127 120 128 129 113
78 87 85 74 70 58 53 46 34 25 3 356 353 340 328 330 334 317 328 344 344 330 324 344 356 359 3 0 358 359 357 355 354 357 2 3 1 359 1 4 4 6 15 19 17 15 9 8 24 37 53 47 68 96 95 109 107 96 97 89 79 73 89 99 99 113 130 133 128 111 101 88 84 92
60 57 54 41 51 58 48 44 37 29 21 12 8 354 349 342 346 7 21 2 346 341 351 357 4 5 5 5 2 0 1 1 357 357 359 6 6 10 11 17 18 21 24 20 8 7 9 16 22 27 38 41 47 82 100 93 92 101 101 93 83 75 60 70 106 124 131 124 84 115 138 126 113 144
39 42 42 38 38 40 39 35 33 32 27 23 8 2 2 348 355 12 19 3 348 348 350 4 4 7 1 4 353 357 8 4 359 355 357 358 8 10 16 16 12 27 15 357 6 21 21 30 29 48 62 55 64 80 91 92 95 95 96 96 103 93 100 98 86 94 90 54 36 33 42 41 354 163
41 36 34 29 25 24 24 19 12 18 21 13 13 17 10 2 353 353 11 2 351 349 3 13 10 357 354 8 17 8 357 356 355 354 353 3 10 11 8 7 7 4 6 357 4 21 19 35 39 49 65 66 67 74 70 75 86 92 91 104 112 115 127 130 119 120 115 103 26 26 50 41 46 142